Tracking 22438 objects as of 25-Feb-2021
HD Live streaming from Space Station
objects crossing your sky now

DELTA 1 DEB

Track DELTA 1 DEB now!
10-day predictions


NORAD ID: 21493
Int'l Code: 1975-052FN
Perigee: 990.6 km
Apogee: 2,248.4 km
Inclination: 99.6 °
Period: 118.5 minutes
Semi major axis: 7990 km
RCS: 0.04 m2 (small)
Launch date: June 12, 1975
Source: United States (US)
Launch site: AIR FORCE WESTERN TEST RANGE (AFWTR)

Note: This is SATELLITE DEBRIS
aabbcc
Your satellite tracking list
Your tracking list is empty




NASA's NSSDC Master Catalog

Two Line Element Set (TLE):
1 21493U 75052FN  21054.42187528  .00001241  00000-0  49477-2 0  9998
2 21493  99.6061 216.3945 0787010 270.7312 109.8449 12.15464182316219
Source of the keplerian elements: AFSPC